FW8568 Weather Reports


Display with metric or nautical units.
time (UTC)temp
F
wind
direction
speed
MPH
gust
MPH
rain 1hr
in
rain 24hr
in
rain mn
in
humidity
%
barometer
mb
20260509015001 99 94 2.0 5.0 0.00 0.00 0.00 15 1005.9
20260509014458 100 90 3.0 5.0 0.00 0.00 0.00 15 1005.9
20260509013954 99 84 3.0 4.0 0.00 0.00 0.00 15 1006.0
20260509013452 99 62 2.0 5.0 0.00 0.00 0.00 16 1005.8
20260509012947 99 89 3.0 9.0 0.00 0.00 0.00 15 1005.9
20260509012444 100 76 3.0 6.0 0.00 0.00 0.00 15 1006.0
20260509011941 101 83 3.0 7.0 0.00 0.00 0.00 15 1006.2
20260509011439 102 102 5.0 6.0 0.00 0.00 0.00 14 1006.2
20260509010936 103 104 3.0 5.0 0.00 0.00 0.00 14 1006.1
20260509010434 103 86 3.0 6.0 0.00 0.00 0.00 14 1006.3
20260509005931 103 91 3.0 6.0 0.00 0.00 0.00 14 1006.3
20260509005429 102 106 5.0 10.0 0.00 0.00 0.00 14 1006.4
20260509004928 104 80 3.0 6.0 0.00 0.00 0.00 14 1006.2
20260509004425 103 93 4.0 5.0 0.00 0.00 0.00 14 1006.3
20260509003923 103 94 5.0 8.0 0.00 0.00 0.00 14 1006.3
20260509003421 103 144 2.0 7.0 0.00 0.00 0.00 14 1006.3
20260509002917 104 101 2.0 6.0 0.00 0.00 0.00 14 1006.4
20260509002416 102 119 5.0 7.0 0.00 0.00 0.00 14 1006.4
20260509001912 104 88 5.0 6.0 0.00 0.00 0.00 14 1006.3
20260509001408 102 89 2.0 6.0 0.00 0.00 0.00 14 1006.6
20260509000906 103 124 2.0 6.0 0.00 0.00 0.00 14 1006.5
20260509000404 103 67 4.0 9.0 0.00 0.00 0.00 14 1006.1
20260508235859 102 92 3.0 9.0 0.00 0.00 0.00 15 1006.5
20260508235357 102 92 4.0 9.0 0.00 0.00 0.00 15 1006.5
20260508234854 102 80 4.0 7.0 0.00 0.00 0.00 14 1006.5
20260508234350 103 24 6.0 7.0 0.00 0.00 0.00 14 1006.5
20260508233849 102 111 2.0 10.0 0.00 0.00 0.00 14 1006.7
20260508233348 102 119 4.0 7.0 0.00 0.00 0.00 15 1006.8
20260508232844 102 157 0.0 7.0 0.00 0.00 0.00 15 1006.7
20260508232340 102 66 5.0 9.0 0.00 0.00 0.00 14 1007.0
20260508231839 103 91 9.0 11.0 0.00 0.00 0.00 14 1007.0
20260508231335 103 63 3.0 8.0 0.00 0.00 0.00 14 1006.9
20260508230832 102 54 5.0 9.0 0.00 0.00 0.00 15 1007.1
20260508230328 103 80 4.0 7.0 0.00 0.00 0.00 15 1007.2
20260508225826 102 84 4.0 9.0 0.00 0.00 0.00 15 1007.2
20260508225322 102 91 5.0 6.0 0.00 0.00 0.00 14 1007.1
20260508224820 102 59 3.0 6.0 0.00 0.00 0.00 15 1007.3
20260508224318 101 96 3.0 9.0 0.00 0.00 0.00 15 1007.3
20260508223815 102 100 4.0 8.0 0.00 0.00 0.00 16 1007.4
20260508223312 102 95 6.0 6.0 0.00 0.00 0.00 16 1007.5
20260508222810 100 91 4.0 6.0 0.00 0.00 0.00 16 1007.8
20260508222307 100 91 3.0 7.0 0.00 0.00 0.00 16 1008.0
20260508221803 100 109 3.0 10.0 0.00 0.00 0.00 16 1007.8
20260508221259 100 82 2.0 7.0 0.00 0.00 0.00 16 1008.0
20260508220755 100 109 2.0 9.0 0.00 0.00 0.00 17 1008.2
20260508220252 99 83 3.0 12.0 0.00 0.00 0.00 16 1008.2
20260508215748 99 101 4.0 10.0 0.00 0.00 0.00 17 1008.5
20260508215245 99 68 5.0 12.0 0.00 0.00 0.00 18 1008.6
20260508214742 99 89 3.0 11.0 0.00 0.00 0.00 17 1008.5
20260508214239 100 84 3.0 7.0 0.00 0.00 0.00 17 1008.8
20260508213736 99 98 6.0 7.0 0.00 0.00 0.00 18 1008.7
20260508213232 99 79 4.0 9.0 0.00 0.00 0.00 18 1008.8
20260508212729 99 90 3.0 7.0 0.00 0.00 0.00 19 1008.7
20260508212225 99 115 3.0 6.0 0.00 0.00 0.00 17 1008.8
20260508211721 99 99 3.0 10.0 0.00 0.00 0.00 17 1008.9
20260508211217 100 100 5.0 8.0 0.00 0.00 0.00 17 1009.0
20260508210715 99 59 3.0 8.0 0.00 0.00 0.00 17 1009.0
20260508210212 99 84 6.0 7.0 0.00 0.00 0.00 16 1009.2
20260508205708 99 104 4.0 7.0 0.00 0.00 0.00 17 1009.2
20260508205205 99 110 5.0 8.0 0.00 0.00 0.00 17 1009.4
20260508204701 98 93 3.0 6.0 0.00 0.00 0.00 17 1009.5
20260508204157 98 107 3.0 5.0 0.00 0.00 0.00 17 1009.6
20260508203653 97 80 5.0 5.0 0.00 0.00 0.00 17 1009.8
20260508203150 97 112 3.0 7.0 0.00 0.00 0.00 17 1009.5
20260508202646 97 68 3.0 7.0 0.00 0.00 0.00 18 1009.7
20260508202144 96 117 7.0 10.0 0.00 0.00 0.00 18 1009.7
20260508201640 96 85 1.0 5.0 0.00 0.00 0.00 19 1009.9
20260508201137 95 104 4.0 6.0 0.00 0.00 0.00 19 1009.9
20260508200634 95 93 1.0 3.0 0.00 0.00 0.00 19 1010.1
20260508200130 95 112 4.0 5.0 0.00 0.00 0.00 19 1010.2
20260508195626 96 94 2.0 6.0 0.00 0.00 0.00 19 1010.1
20260508195123 95 141 2.0 6.0 0.00 0.00 0.00 19 1010.3
20260508194619 94 97 1.0 2.0 0.00 0.00 0.00 21 1010.2
20260508194117 94 51 2.0 4.0 0.00 0.00 0.00 21 1010.1
20260508193614 93 79 3.0 5.0 0.00 0.00 0.00 20 1010.4
20260508193110 93 113 3.0 4.0 0.00 0.00 0.00 20 1010.5
20260508192607 94 75 2.0 3.0 0.00 0.00 0.00 20 1010.4
20260508192104 93 80 2.0 3.0 0.00 0.00 0.00 22 1010.5
20260508191601 93 191 0.0 4.0 0.00 0.00 0.00 20 1010.7
20260508191057 93 87 1.0 2.0 0.00 0.00 0.00 20 1011.2
20260508190554 92 98 3.0 5.0 0.00 0.00 0.00 20 1011.0
20260508190051 92 90 3.0 3.0 0.00 0.00 0.00 20 1011.0
20260508185548 93 119 3.0 5.0 0.00 0.00 0.00 19 1011.3
20260508185046 93 36 2.0 2.0 0.00 0.00 0.00 21 1011.4
20260508184543 92 46 1.0 2.0 0.00 0.00 0.00 22 1011.6
20260508184039 91 91 2.0 4.0 0.00 0.00 0.00 21 1011.5
20260508183536 91 280 0.0 3.0 0.00 0.00 0.00 20 1011.4
20260508183032 91 254 1.0 2.0 0.00 0.00 0.00 21 1011.4
20260508182529 91 67 1.0 2.0 0.00 0.00 0.00 21 1011.7
20260508182025 91 19 1.0 2.0 0.00 0.00 0.00 21 1011.5
20260508181521 90 322 1.0 2.0 0.00 0.00 0.00 21 1011.8
20260508181019 91 307 0.0 2.0 0.00 0.00 0.00 21 1011.7
20260508180515 91 56 2.0 2.0 0.00 0.00 0.00 22 1011.9
20260508180011 91 95 2.0 2.0 0.00 0.00 0.00 21 1012.0
20260508175508 90 51 0.0 2.0 0.00 0.00 0.00 22 1012.1
20260508175005 89 86 1.0 5.0 0.00 0.00 0.00 21 1012.0
20260508174503 91 69 1.0 3.0 0.00 0.00 0.00 21 1012.0
20260508174000 90 45 1.0 2.0 0.00 0.00 0.00 21 1012.1
20260508173457 90 83 0.0 3.0 0.00 0.00 0.00 22 1011.9
20260508172952 89 76 1.0 2.0 0.00 0.00 0.00 21 1012.1
20260508172450 89 70 0.0 3.0 0.00 0.00 0.00 22 1012.2
20260508171946 89 104 0.0 2.0 0.00 0.00 0.00 23 1012.1
20260508171443 88 315 1.0 3.0 0.00 0.00 0.00 23 1012.3
20260508170939 89 101 2.0 2.0 0.00 0.00 0.00 22 1012.4
20260508170437 89 315 0.0 2.0 0.00 0.00 0.00 23 1012.4
20260508165933 88 55 1.0 2.0 0.00 0.00 0.00 22 1012.4
20260508165432 86 101 1.0 2.0 0.00 0.00 0.00 23 1012.5
20260508164927 86 1 1.0 2.0 0.00 0.00 0.00 23 1012.4
20260508164424 87 140 0.0 2.0 0.00 0.00 0.00 23 1012.5
20260508163921 87 91 1.0 2.0 0.00 0.00 0.00 24 1012.4
20260508163419 86 47 0.0 2.0 0.00 0.00 0.00 25 1012.4
20260508162914 87 128 0.0 2.0 0.00 0.00 0.00 24 1012.6
20260508162412 88 157 1.0 1.0 0.00 0.00 0.00 24 1012.5
20260508161909 88 347 0.0 3.0 0.00 0.00 0.00 24 1012.5
20260508161406 87 316 0.0 2.0 0.00 0.00 0.00 25 1012.5
20260508160903 84 90 0.0 2.0 0.00 0.00 0.00 25 1012.7
20260508160402 85 179 0.0 2.0 0.00 0.00 0.00 24 1012.5
20260508155858 81 117 1.0 2.0 0.00 0.00 0.00 25 1012.6
20260508155355 82 104 2.0 2.0 0.00 0.00 0.00 26 1012.7
20260508154852 83 89 0.0 2.0 0.00 0.00 0.00 26 1012.7
20260508154349 82 77 0.0 1.0 0.00 0.00 0.00 26 1012.7
20260508153846 82 138 0.0 3.0 0.00 0.00 0.00 26 1012.7
20260508153343 81 171 0.0 2.0 0.00 0.00 0.00 26 1012.5
20260508152839 82 104 0.0 2.0 0.00 0.00 0.00 26 1012.7
20260508152336 82 65 0.0 2.0 0.00 0.00 0.00 26 1012.8
20260508151832 82 78 1.0 1.0 0.00 0.00 0.00 27 1012.7
20260508151329 82 41 0.0 2.0 0.00 0.00 0.00 27 1012.9
20260508150825 81 106 0.0 2.0 0.00 0.00 0.00 27 1012.8
20260508150322 82 93 0.0 1.0 0.00 0.00 0.00 27 1012.8
20260508145819 82 36 0.0 1.0 0.00 0.00 0.00 28 1012.9
20260508145315 83 258 0.0 1.0 0.00 0.00 0.00 27 1012.6
20260508144812 81 37 0.0 0.0 0.00 0.00 0.00 31 1012.4
20260508144310 79 117 0.0 1.0 0.00 0.00 0.00 32 1012.8
20260508143807 78 77 0.0 0.0 0.00 0.00 0.00 29 1012.7
20260508143304 79 118 0.0 1.0 0.00 0.00 0.00 28 1012.6
20260508142800 77 144 0.0 0.0 0.00 0.00 0.00 29 1012.7
20260508142257 76 257 0.0 1.0 0.00 0.00 0.00 30 1012.7
20260508141754 76 157 0.0 1.0 0.00 0.00 0.00 31 1012.6
20260508141251 76 119 0.0 1.0 0.00 0.00 0.00 30 1012.7
20260508140748 75 129 0.0 1.0 0.00 0.00 0.00 32 1012.4
20260508140245 75 271 0.0 1.0 0.00 0.00 0.00 32 1012.4
20260508135741 73 68 0.0 0.0 0.00 0.00 0.00 33 1012.4
20260508135237 72 139 0.0 0.0 0.00 0.00 0.00 34 1012.2
20260508134733 71 337 0.0 1.0 0.00 0.00 0.00 34 1012.2
20260508134230 70 271 0.0 1.0 0.00 0.00 0.00 35 1012.2
20260508133727 68 238 1.0 2.0 0.00 0.00 0.00 39 1012.3
20260508133225 68 355 0.0 2.0 0.00 0.00 0.00 37 1012.1
20260508132722 67 324 0.0 0.0 0.00 0.00 0.00 38 1012.0
20260508132220 66 250 0.0 2.0 0.00 0.00 0.00 38 1011.7
20260508131715 65 269 0.0 2.0 0.00 0.00 0.00 40 1011.8
20260508131212 65 296 0.0 1.0 0.00 0.00 0.00 37 1011.5
20260508130708 65 276 0.0 2.0 0.00 0.00 0.00 38 1011.6
20260508130206 65 314 0.0 1.0 0.00 0.00 0.00 37 1011.5
20260508125701 65 335 0.0 1.0 0.00 0.00 0.00 38 1011.3
20260508125157 64 309 0.0 1.0 0.00 0.00 0.00 39 1011.4
20260508124656 65 306 2.0 2.0 0.00 0.00 0.00 38 1011.2
20260508124152 65 284 0.0 2.0 0.00 0.00 0.00 37 1011.2
20260508123651 65 238 0.0 2.0 0.00 0.00 0.00 36 1011.3
20260508123149 65 284 0.0 2.0 0.00 0.00 0.00 36 1011.2
20260508122644 66 278 0.0 1.0 0.00 0.00 0.00 39 1011.3
20260508122141 66 301 0.0 1.0 0.00 0.00 0.00 37 1010.9
20260508121639 66 330 0.0 1.0 0.00 0.00 0.00 35 1011.0
20260508121137 67 272 0.0 1.0 0.00 0.00 0.00 34 1011.0
20260508120634 67 247 1.0 1.0 0.00 0.00 0.00 35 1011.0
20260508120133 67 81 0.0 0.0 0.00 0.00 0.00 33 1011.0
20260508115630 68 324 0.0 1.0 0.00 0.00 0.00 32 1010.8
20260508115127 68 277 0.0 2.0 0.00 0.00 0.00 31 1011.0
20260508114624 69 245 0.0 0.0 0.00 0.00 0.00 31 1011.0
20260508114119 69 324 0.0 0.0 0.00 0.00 0.00 31 1010.9
20260508113617 69 245 0.0 0.0 0.00 0.00 0.00 30 1010.8
20260508113115 70 264 0.0 2.0 0.00 0.00 0.00 29 1010.8
20260508112611 71 254 0.0 0.0 0.00 0.00 0.00 30 1010.9
20260508112108 71 280 3.0 3.0 0.00 0.00 0.00 29 1010.7
20260508111605 71 261 1.0 3.0 0.00 0.00 0.00 29 1010.5
20260508111102 71 262 3.0 3.0 0.00 0.00 0.00 28 1010.6
20260508110600 71 293 0.0 1.0 0.00 0.00 0.00 28 1010.7
20260508110056 72 249 2.0 2.0 0.00 0.00 0.00 27 1010.5
20260508105551 72 281 2.0 4.0 0.00 0.00 0.00 27 1010.5
20260508105048 72 255 2.0 3.0 0.00 0.00 0.00 26 1010.6
20260508104546 72 287 1.0 2.0 0.00 0.00 0.00 26 1010.7
20260508104042 73 267 2.0 3.0 0.00 0.00 0.00 27 1010.6
20260508103539 73 262 0.0 1.0 0.00 0.00 0.00 27 1010.4
20260508103037 73 287 1.0 2.0 0.00 0.00 0.00 28 1010.5
20260508102534 73 250 0.0 1.0 0.00 0.00 0.00 27 1010.6
20260508102032 73 266 2.0 3.0 0.00 0.00 0.00 27 1010.5
20260508101529 73 312 0.0 2.0 0.00 0.00 0.00 28 1010.3
20260508101026 74 284 0.0 1.0 0.00 0.00 0.00 28 1010.2
20260508100524 74 239 0.0 3.0 0.00 0.00 0.00 28 1010.4
20260508100021 74 275 1.0 2.0 0.00 0.00 0.00 28 1010.4
20260508095518 74 253 1.0 3.0 0.00 0.00 0.00 27 1010.2
20260508095015 74 293 0.0 2.0 0.00 0.00 0.00 27 1010.3
20260508094512 74 284 2.0 3.0 0.00 0.00 0.00 26 1010.3
20260508094009 75 269 2.0 3.0 0.00 0.00 0.00 26 1010.1
20260508093506 74 254 2.0 3.0 0.00 0.00 0.00 26 1010.2
20260508093004 73 268 2.0 2.0 0.00 0.00 0.00 26 1010.2
20260508092501 73 284 0.0 1.0 0.00 0.00 0.00 25 1010.3
20260508092000 74 251 0.0 2.0 0.00 0.00 0.00 25 1010.2
20260508091456 74 284 0.0 0.0 0.00 0.00 0.00 25 1010.0
20260508090953 75 270 1.0 2.0 0.00 0.00 0.00 24 1010.1
20260508090452 75 269 2.0 3.0 0.00 0.00 0.00 25 1010.0
20260508085947 75 273 2.0 3.0 0.00 0.00 0.00 26 1010.0
20260508085444 75 249 2.0 2.0 0.00 0.00 0.00 26 1010.0
20260508084941 75 279 1.0 3.0 0.00 0.00 0.00 26 1010.1
20260508084437 75 268 0.0 1.0 0.00 0.00 0.00 26 1010.2
20260508083936 74 279 1.0 1.0 0.00 0.00 0.00 27 1010.3
20260508083432 74 261 0.0 1.0 0.00 0.00 0.00 26 1010.3
20260508082932 74 257 0.0 1.0 0.00 0.00 0.00 27 1010.2
20260508082424 74 284 0.0 1.0 0.00 0.00 0.00 27 1010.1
20260508081922 75 312 0.0 0.0 0.00 0.00 0.00 26 1010.1
20260508081418 75 312 0.0 1.0 0.00 0.00 0.00 26 1010.1
20260508080915 75 289 1.0 2.0 0.00 0.00 0.00 26 1010.1
20260508080413 75 271 1.0 2.0 0.00 0.00 0.00 26 1010.1
20260508075909 75 234 1.0 3.0 0.00 0.00 0.00 28 1010.2
20260508075407 75 247 1.0 2.0 0.00 0.00 0.00 28 1010.2
20260508074904 74 269 1.0 1.0 0.00 0.00 0.00 27 1010.3
20260508074401 74 265 1.0 2.0 0.00 0.00 0.00 27 1010.1
20260508073858 73 256 1.0 2.0 0.00 0.00 0.00 30 1009.8
20260508073356 72 288 1.0 2.0 0.00 0.00 0.00 31 1009.9
20260508072852 72 255 0.0 1.0 0.00 0.00 0.00 30 1010.2
20260508072348 72 330 0.0 0.0 0.00 0.00 0.00 28 1009.9
20260508071846 72 314 0.0 0.0 0.00 0.00 0.00 26 1009.9
20260508071344 72 248 0.0 0.0 0.00 0.00 0.00 26 1009.7
20260508070842 73 284 0.0 0.0 0.00 0.00 0.00 26 1009.9
20260508070339 73 271 0.0 0.0 0.00 0.00 0.00 25 1010.1
20260508065831 73 257 0.0 0.0 0.00 0.00 0.00 26 1009.8
20260508065329 73 312 0.0 0.0 0.00 0.00 0.00 25 1009.7
20260508064827 73 308 0.0 0.0 0.00 0.00 0.00 25 1009.6
20260508064324 73 337 0.0 0.0 0.00 0.00 0.00 25 1009.6
20260508063822 73 330 0.0 0.0 0.00 0.00 0.00 26 1009.8
20260508063320 74 319 0.0 0.0 0.00 0.00 0.00 24 1009.6
20260508062816 74 312 0.0 0.0 0.00 0.00 0.00 24 1009.9
20260508062314 74 337 0.0 0.0 0.00 0.00 0.00 24 1009.8
20260508061810 74 297 0.0 1.0 0.00 0.00 0.00 24 1009.9
20260508061309 75 284 0.0 0.0 0.00 0.00 0.00 23 1009.9
20260508060804 75 262 0.0 0.0 0.00 0.00 0.00 23 1009.8
20260508060303 75 337 0.0 0.0 0.00 0.00 0.00 23 1010.0
20260508055757 75 255 0.0 0.0 0.00 0.00 0.00 23 1009.8
20260508055255 75 324 0.0 0.0 0.00 0.00 0.00 23 1009.9
20260508054751 75 337 0.0 0.0 0.00 0.00 0.00 25 1009.9
20260508054249 76 303 0.0 0.0 0.00 0.00 0.00 22 1009.9
20260508053746 76 297 0.0 0.0 0.00 0.00 0.00 24 1009.7
20260508053243 76 297 0.0 0.0 0.00 0.00 0.00 22 1009.8
20260508052740 76 349 0.0 0.0 0.00 0.00 0.00 21 1009.9
20260508052237 77 284 0.0 0.0 0.00 0.00 0.00 21 1009.9
20260508051733 77 244 0.0 0.0 0.00 0.00 0.00 20 1010.0
20260508051229 77 245 0.0 0.0 0.00 0.00 0.00 21 1010.1
20260508050726 77 70 0.0 0.0 0.00 0.00 0.00 20 1009.7
20260508050223 77 128 0.0 0.0 0.00 0.00 0.00 20 1009.8
20260508045718 77 128 0.0 0.0 0.00 0.00 0.00 25 1009.9
20260508045216 78 77 0.0 0.0 0.00 0.00 0.00 21 1009.6
20260508044713 78 37 0.0 0.0 0.00 0.00 0.00 20 1009.8
20260508044210 78 257 0.0 0.0 0.00 0.00 0.00 19 1009.7
20260508043705 79 52 0.0 0.0 0.00 0.00 0.00 19 1009.6
20260508043204 79 52 0.0 0.0 0.00 0.00 0.00 20 1009.6
20260508042700 80 52 0.0 0.0 0.00 0.00 0.00 19 1009.6
20260508042158 81 52 0.0 0.0 0.00 0.00 0.00 18 1009.5
20260508041654 82 70 0.0 0.0 0.00 0.00 0.00 18 1009.4
20260508041151 82 104 0.0 0.0 0.00 0.00 0.00 17 1009.3
20260508040647 82 104 0.0 0.0 0.00 0.00 0.00 17 1009.3
20260508040144 82 77 0.0 0.0 0.00 0.00 0.00 17 1009.4
20260508035641 83 118 0.0 0.0 0.00 0.00 0.00 17 1009.1
20260508035139 84 144 0.0 0.0 0.00 0.00 0.00 17 1009.3
20260508034636 84 134 0.0 1.0 0.00 0.00 0.00 17 1009.2
20260508034133 85 93 0.0 1.0 0.00 0.00 0.00 16 1009.1
20260508033630 85 82 0.0 2.0 0.00 0.00 0.00 16 1009.3
20260508033129 85 150 0.0 1.0 0.00 0.00 0.00 16 1009.0
20260508032625 85 87 0.0 1.0 0.00 0.00 0.00 17 1009.2
20260508032122 85 104 0.0 2.0 0.00 0.00 0.00 16 1008.9
20260508031619 86 132 0.0 2.0 0.00 0.00 0.00 16 1009.0
20260508031115 86 30 0.0 2.0 0.00 0.00 0.00 16 1008.7
20260508030612 86 93 1.0 2.0 0.00 0.00 0.00 17 1008.8
20260508030110 87 58 0.0 2.0 0.00 0.00 0.00 16 1008.6
20260508025605 87 101 1.0 2.0 0.00 0.00 0.00 17 1008.6
20260508025103 87 91 1.0 2.0 0.00 0.00 0.00 16 1008.6
20260508024558 87 90 1.0 3.0 0.00 0.00 0.00 17 1008.6
20260508024055 88 120 1.0 2.0 0.00 0.00 0.00 16 1008.5
20260508023552 88 66 0.0 3.0 0.00 0.00 0.00 16 1008.3
20260508023050 89 75 2.0 4.0 0.00 0.00 0.00 16 1008.3
20260508022545 89 91 2.0 3.0 0.00 0.00 0.00 16 1008.3
20260508022043 89 75 2.0 4.0 0.00 0.00 0.00 17 1008.3
20260508021538 90 69 1.0 5.0 0.00 0.00 0.00 16 1008.1
20260508021034 90 95 0.0 4.0 0.00 0.00 0.00 15 1008.1
20260508020532 90 86 1.0 3.0 0.00 0.00 0.00 15 1008.1
20260508020030 91 80 0.0 2.0 0.00 0.00 0.00 15 1008.2
20260508015527 92 91 0.0 3.0 0.00 0.00 0.00 15 1008.0